Time,TemperatureF,DewpointF,PressureIn,WindDirection,WindDirectionDegrees,WindSpeedMPH,WindSpeedGustMPH,Humidity,HourlyPrecipIn,Conditions,Clouds,dailyrainin,SoftwareType,DateUTC
2013-07-17 00:11:00,70.2,69.0,30.21,West,280,0.0,-999.0,95,-99.99,,,0.00,weatherlink.com 1.10,2013-07-17 04:11:00,
2013-07-17 00:26:00,70.0,69.0,30.21,West,280,2.0,-999.0,95,-99.99,,,0.00,weatherlink.com 1.10,2013-07-17 04:26:00,
2013-07-17 00:41:00,70.4,69.0,30.21,SE,129,3.0,-999.0,95,-99.99,,,0.00,weatherlink.com 1.10,2013-07-17 04:41:00,
2013-07-17 00:56:00,70.3,69.0,30.20,SE,129,0.0,-999.0,94,-99.99,,,0.00,weatherlink.com 1.10,2013-07-17 04:56:00,
2013-07-17 01:12:00,69.5,68.0,30.20,SE,129,0.0,-999.0,95,-99.99,,,0.00,weatherlink.com 1.10,2013-07-17 05:12:00,
2013-07-17 01:27:00,69.8,68.0,30.20,SE,129,3.0,-999.0,95,-99.99,,,0.00,weatherlink.com 1.10,2013-07-17 05:27:00,
2013-07-17 01:42:00,69.9,69.0,30.19,SE,129,0.0,-999.0,95,-99.99,,,0.00,weatherlink.com 1.10,2013-07-17 05:42:00,
2013-07-17 01:57:00,69.9,68.0,30.19,SE,129,0.0,-999.0,94,-99.99,,,0.00,weatherlink.com 1.10,2013-07-17 05:57:00,
2013-07-17 02:12:00,69.7,68.0,30.19,SE,128,2.0,-999.0,95,-99.99,,,0.00,weatherlink.com 1.10,2013-07-17 06:12:00,
2013-07-17 02:27:00,69.7,68.0,30.18,SE,124,0.0,-999.0,94,-99.99,,,0.00,weatherlink.com 1.10,2013-07-17 06:27:00,
2013-07-17 02:42:00,-999.0,-99.9,30.18,North,-999,-999.0,-999.0,-999,-99.99,,,0.00,weatherlink.com 1.10,2013-07-17 06:42:00,
2013-07-17 02:57:00,-999.0,-99.9,30.17,North,-999,-999.0,-999.0,-999,-99.99,,,0.00,weatherlink.com 1.10,2013-07-17 06:57:00,
2013-07-17 03:12:00,-999.0,-99.9,30.17,North,-999,-999.0,-999.0,-999,-99.99,,,0.00,weatherlink.com 1.10,2013-07-17 07:12:00,
2013-07-17 03:27:00,-999.0,-99.9,30.18,North,-999,-999.0,-999.0,-999,-99.99,,,0.00,weatherlink.com 1.10,2013-07-17 07:27:00,
2013-07-17 03:42:00,-999.0,-99.9,30.17,North,-999,-999.0,-999.0,-999,-99.99,,,0.00,weatherlink.com 1.10,2013-07-17 07:42:00,
2013-07-17 03:57:00,-999.0,-99.9,30.18,North,-999,-999.0,-999.0,-999,-99.99,,,0.00,weatherlink.com 1.10,2013-07-17 07:57:00,
2013-07-17 04:12:00,-999.0,-99.9,30.18,North,-999,-999.0,-999.0,-999,-99.99,,,0.00,weatherlink.com 1.10,2013-07-17 08:12:00,
2013-07-17 04:27:00,-999.0,-99.9,30.18,North,-999,-999.0,-999.0,-999,-99.99,,,0.00,weatherlink.com 1.10,2013-07-17 08:27:00,
2013-07-17 04:42:00,-999.0,-99.9,30.18,North,-999,-999.0,-999.0,-999,-99.99,,,0.00,weatherlink.com 1.10,2013-07-17 08:42:00,
2013-07-17 04:57:00,-999.0,-99.9,30.18,North,-999,-999.0,-999.0,-999,-99.99,,,0.00,weatherlink.com 1.10,2013-07-17 08:57:00,
2013-07-17 05:12:00,-999.0,-99.9,30.18,North,-999,-999.0,-999.0,-999,-99.99,,,0.00,weatherlink.com 1.10,2013-07-17 09:12:00,
2013-07-17 05:27:00,-999.0,-99.9,30.18,North,-999,-999.0,-999.0,-999,-99.99,,,0.00,weatherlink.com 1.10,2013-07-17 09:27:00,
2013-07-17 05:42:00,-999.0,-99.9,30.19,North,-999,-999.0,-999.0,-999,-99.99,,,0.00,weatherlink.com 1.10,2013-07-17 09:42:00,
2013-07-17 05:58:00,-999.0,-99.9,30.19,North,-999,-999.0,-999.0,-999,-99.99,,,0.00,weatherlink.com 1.10,2013-07-17 09:58:00,
2013-07-17 06:13:00,-999.0,-99.9,30.19,North,-999,-999.0,-999.0,-999,-99.99,,,0.00,weatherlink.com 1.10,2013-07-17 10:13:00,
2013-07-17 06:28:00,-999.0,-99.9,30.19,North,-999,-999.0,-999.0,-999,-99.99,,,0.00,weatherlink.com 1.10,2013-07-17 10:28:00,
2013-07-17 06:43:00,-999.0,-99.9,30.19,North,-999,-999.0,-999.0,-999,-99.99,,,0.00,weatherlink.com 1.10,2013-07-17 10:43:00,
2013-07-17 06:58:00,-999.0,-99.9,30.19,North,-999,-999.0,-999.0,-999,-99.99,,,0.00,weatherlink.com 1.10,2013-07-17 10:58:00,
2013-07-17 07:13:00,-999.0,-99.9,30.19,North,-999,-999.0,-999.0,-999,-99.99,,,0.00,weatherlink.com 1.10,2013-07-17 11:13:00,
2013-07-17 07:28:00,-999.0,-99.9,30.19,North,-999,-999.0,-999.0,-999,-99.99,,,0.00,weatherlink.com 1.10,2013-07-17 11:28:00,
2013-07-17 07:43:00,-999.0,-99.9,30.20,North,-999,-999.0,-999.0,-999,-99.99,,,0.00,weatherlink.com 1.10,2013-07-17 11:43:00,
2013-07-17 07:58:00,74.6,-99.9,30.20,SE,142,4.0,-999.0,-999,-99.99,,,0.00,weatherlink.com 1.10,2013-07-17 11:58:00,
2013-07-17 08:13:00,75.6,71.0,30.20,SSE,165,2.0,-999.0,84,-99.99,,,0.00,weatherlink.com 1.10,2013-07-17 12:13:00,
2013-07-17 08:28:00,77.2,71.0,30.19,SE,143,1.0,-999.0,81,-99.99,,,0.00,weatherlink.com 1.10,2013-07-17 12:28:00,
2013-07-17 08:43:00,78.9,72.0,30.19,SE,136,4.0,-999.0,80,-99.99,,,0.00,weatherlink.com 1.10,2013-07-17 12:43:00,
2013-07-17 08:58:00,80.0,73.0,30.19,SE,146,1.0,-999.0,78,-99.99,,,0.00,weatherlink.com 1.10,2013-07-17 12:58:00,
2013-07-17 09:13:00,81.1,73.0,30.19,SW,214,6.0,-999.0,76,-99.99,,,0.00,weatherlink.com 1.10,2013-07-17 13:13:00,
2013-07-17 09:28:00,81.9,74.0,30.19,South,184,7.0,-999.0,77,-99.99,,,0.00,weatherlink.com 1.10,2013-07-17 13:28:00,
2013-07-17 09:43:00,82.4,73.0,30.18,South,180,4.0,-999.0,73,-99.99,,,0.00,weatherlink.com 1.10,2013-07-17 13:43:00,
2013-07-17 09:59:00,83.4,74.0,30.18,SSW,193,5.0,-999.0,74,-99.99,,,0.00,weatherlink.com 1.10,2013-07-17 13:59:00,
2013-07-17 10:15:00,84.0,75.0,30.17,ESE,123,5.0,-999.0,73,-99.99,,,0.00,weatherlink.com 1.10,2013-07-17 14:15:00,
2013-07-17 10:29:00,84.4,74.0,30.17,SSW,204,2.0,-999.0,71,-99.99,,,0.00,weatherlink.com 1.10,2013-07-17 14:29:00,
2013-07-17 10:44:00,84.7,74.0,30.16,SSW,195,5.0,-999.0,70,-99.99,,,0.00,weatherlink.com 1.10,2013-07-17 14:44:00,
2013-07-17 10:59:00,84.8,76.0,30.16,SSE,147,0.0,-999.0,75,-99.99,,,0.00,weatherlink.com 1.10,2013-07-17 14:59:00,
2013-07-17 11:14:00,85.5,75.0,30.16,South,172,2.0,-999.0,71,-99.99,,,0.00,weatherlink.com 1.10,2013-07-17 15:14:00,
2013-07-17 11:29:00,86.4,76.0,30.16,South,177,7.0,-999.0,72,-99.99,,,0.00,weatherlink.com 1.10,2013-07-17 15:29:00,
2013-07-17 11:44:00,87.2,77.0,30.16,SW,226,6.0,-999.0,71,-99.99,,,0.00,weatherlink.com 1.10,2013-07-17 15:44:00,
2013-07-17 11:59:00,87.8,75.0,30.14,SW,236,6.0,-999.0,65,-99.99,,,0.00,weatherlink.com 1.10,2013-07-17 15:59:00,
2013-07-17 12:14:00,88.1,76.0,30.14,SSW,213,10.0,-999.0,67,-99.99,,,0.00,weatherlink.com 1.10,2013-07-17 16:14:00,
2013-07-17 12:29:00,88.1,75.0,30.14,SW,214,7.0,-999.0,66,-99.99,,,0.00,weatherlink.com 1.10,2013-07-17 16:29:00,
2013-07-17 12:44:00,88.7,76.0,30.13,SSW,203,7.0,-999.0,66,-99.99,,,0.00,weatherlink.com 1.10,2013-07-17 16:44:00,
2013-07-17 12:59:00,89.2,75.0,30.13,South,185,6.0,-999.0,64,-99.99,,,0.00,weatherlink.com 1.10,2013-07-17 16:59:00,
2013-07-17 13:14:00,89.6,75.0,30.11,SW,231,7.0,-999.0,62,-99.99,,,0.00,weatherlink.com 1.10,2013-07-17 17:14:00,
2013-07-17 13:29:00,89.8,76.0,30.11,South,172,6.0,-999.0,63,-99.99,,,0.00,weatherlink.com 1.10,2013-07-17 17:29:00,
2013-07-17 13:44:00,90.1,75.0,30.10,South,179,3.0,-999.0,61,-99.99,,,0.00,weatherlink.com 1.10,2013-07-17 17:44:00,
2013-07-17 13:59:00,90.3,75.0,30.10,SW,223,10.0,-999.0,61,-99.99,,,0.00,weatherlink.com 1.10,2013-07-17 17:59:00,
2013-07-17 14:14:00,90.9,76.0,30.10,SW,226,5.0,-999.0,61,-99.99,,,0.00,weatherlink.com 1.10,2013-07-17 18:14:00,
2013-07-17 14:29:00,91.2,75.0,30.08,SSW,211,13.0,-999.0,59,-99.99,,,0.00,weatherlink.com 1.10,2013-07-17 18:29:00,
2013-07-17 14:44:00,91.8,76.0,30.06,SW,224,10.0,-999.0,60,-99.99,,,0.00,weatherlink.com 1.10,2013-07-17 18:44:00,
2013-07-17 14:59:00,91.6,75.0,30.05,South,176,6.0,-999.0,58,-99.99,,,0.00,weatherlink.com 1.10,2013-07-17 18:59:00,
2013-07-17 15:14:00,91.7,75.0,30.05,SSW,204,5.0,-999.0,58,-99.99,,,0.00,weatherlink.com 1.10,2013-07-17 19:14:00,
2013-07-17 15:29:00,92.1,76.0,30.04,SSW,201,11.0,-999.0,59,-99.99,,,0.00,weatherlink.com 1.10,2013-07-17 19:29:00,
2013-07-17 15:44:00,92.5,76.0,30.04,SW,223,11.0,-999.0,58,-99.99,,,0.00,weatherlink.com 1.10,2013-07-17 19:44:00,
2013-07-17 15:59:00,92.6,76.0,30.04,SSW,205,4.0,-999.0,59,-99.99,,,0.00,weatherlink.com 1.10,2013-07-17 19:59:00,
2013-07-17 16:14:00,92.4,76.0,30.03,SSW,192,8.0,-999.0,59,-99.99,,,0.00,weatherlink.com 1.10,2013-07-17 20:14:00,
2013-07-17 16:29:00,92.4,77.0,30.02,SSW,202,14.0,-999.0,60,-99.99,,,0.00,weatherlink.com 1.10,2013-07-17 20:29:00,
2013-07-17 16:44:00,91.1,76.0,30.01,South,191,3.0,-999.0,62,-99.99,,,0.00,weatherlink.com 1.10,2013-07-17 20:44:00,
2013-07-17 16:59:00,91.7,77.0,30.00,SW,219,14.0,-999.0,62,-99.99,,,0.00,weatherlink.com 1.10,2013-07-17 20:59:00,
2013-07-17 17:14:00,91.7,76.0,29.99,South,191,5.0,-999.0,61,-99.99,,,0.00,weatherlink.com 1.10,2013-07-17 21:14:00,
2013-07-17 17:29:00,91.3,76.0,29.99,SSW,195,5.0,-999.0,61,-99.99,,,0.00,weatherlink.com 1.10,2013-07-17 21:29:00,
2013-07-17 17:44:00,90.2,77.0,29.98,SSW,207,7.0,-999.0,65,-99.99,,,0.00,weatherlink.com 1.10,2013-07-17 21:44:00,
2013-07-17 17:59:00,88.9,76.0,29.99,SSW,195,9.0,-999.0,66,-99.99,,,0.00,weatherlink.com 1.10,2013-07-17 21:59:00,
2013-07-17 18:14:00,88.2,76.0,30.00,SSW,207,4.0,-999.0,68,-99.99,,,0.00,weatherlink.com 1.10,2013-07-17 22:14:00,
2013-07-17 18:29:00,87.4,76.0,30.00,SSW,212,7.0,-999.0,68,-99.99,,,0.00,weatherlink.com 1.10,2013-07-17 22:29:00,
2013-07-17 18:44:00,87.2,76.0,30.00,SSW,194,3.0,-999.0,69,-99.99,,,0.00,weatherlink.com 1.10,2013-07-17 22:44:00,
2013-07-17 18:59:00,87.5,76.0,30.00,SSW,197,12.0,-999.0,68,-99.99,,,0.00,weatherlink.com 1.10,2013-07-17 22:59:00,
2013-07-17 19:14:00,87.0,76.0,30.00,WSW,257,0.0,-999.0,69,-99.99,,,0.00,weatherlink.com 1.10,2013-07-17 23:14:00,
2013-07-17 19:29:00,86.2,76.0,30.00,SW,231,0.0,-999.0,72,-99.99,,,0.00,weatherlink.com 1.10,2013-07-17 23:29:00,
2013-07-17 19:44:00,85.6,76.0,30.01,WSW,240,0.0,-999.0,74,-99.99,,,0.00,weatherlink.com 1.10,2013-07-17 23:44:00,
2013-07-17 19:59:00,84.8,76.0,30.02,WSW,238,3.0,-999.0,75,-99.99,,,0.00,weatherlink.com 1.10,2013-07-17 23:59:00,
2013-07-17 20:14:00,84.3,76.0,30.02,WSW,238,0.0,-999.0,77,-99.99,,,0.00,weatherlink.com 1.10,2013-07-18 00:14:00,
2013-07-17 20:31:00,84.0,75.0,30.02,SW,231,4.0,-999.0,73,-99.99,,,0.00,weatherlink.com 1.10,2013-07-18 00:31:00,
2013-07-17 20:45:00,84.7,74.0,30.02,SW,232,4.0,-999.0,71,-99.99,,,0.00,weatherlink.com 1.10,2013-07-18 00:45:00,
2013-07-17 21:01:00,85.0,74.0,30.00,WSW,256,5.0,-999.0,70,-99.99,,,0.00,weatherlink.com 1.10,2013-07-18 01:01:00,
2013-07-17 21:15:00,84.7,74.0,30.00,WSW,253,4.0,-999.0,70,-99.99,,,0.00,weatherlink.com 1.10,2013-07-18 01:15:00,
2013-07-17 21:30:00,84.6,74.0,30.01,WSW,257,0.0,-999.0,70,-99.99,,,0.00,weatherlink.com 1.10,2013-07-18 01:30:00,
2013-07-17 21:45:00,83.6,74.0,29.98,SW,227,0.0,-999.0,72,-99.99,,,0.00,weatherlink.com 1.10,2013-07-18 01:45:00,
2013-07-17 22:00:00,83.3,73.0,29.98,SW,219,0.0,-999.0,72,-99.99,,,0.00,weatherlink.com 1.10,2013-07-18 02:00:00,
2013-07-17 22:15:00,83.4,74.0,30.00,SW,233,0.0,-999.0,72,-99.99,,,0.00,weatherlink.com 1.10,2013-07-18 02:15:00,
2013-07-17 22:30:00,82.2,74.0,30.01,SW,233,0.0,-999.0,76,-99.99,,,0.00,weatherlink.com 1.10,2013-07-18 02:30:00,
2013-07-17 22:45:00,81.0,74.0,30.02,SW,234,1.0,-999.0,78,-99.99,,,0.00,weatherlink.com 1.10,2013-07-18 02:45:00,
2013-07-17 23:00:00,80.1,74.0,30.00,SW,234,0.0,-999.0,81,-99.99,,,0.00,weatherlink.com 1.10,2013-07-18 03:00:00,
2013-07-17 23:15:00,79.0,74.0,30.01,SW,234,0.0,-999.0,83,-99.99,,,0.00,weatherlink.com 1.10,2013-07-18 03:15:00,
2013-07-17 23:30:00,78.1,74.0,30.02,SW,234,0.0,-999.0,87,-99.99,,,0.00,weatherlink.com 1.10,2013-07-18 03:30:00,
2013-07-17 23:45:00,77.7,74.0,30.02,SW,234,0.0,-999.0,88,-99.99,,,0.00,weatherlink.com 1.10,2013-07-18 03:45:00,